User: anonymous
Location: Unspecified
(0.0000°N, 0.0000°E)
Time: 17:42:32
(UTC+02:00)
Language:

ISS - Orbit

View from above orbital plane
View from above orbital plane
View from above satellite
View from above satellite

Ground track
Ground track

The orbit data is extracted from the following two-line orbital elements,

1 25544U 98067A   14234.55523644  .00010996  00000-0  19915-3 0  9429
2 25544 051.6459 130.6130 0004581 048.6722 015.1002 15.50171053901628
Epoch (UTC): 22 August 2014 13:19:32
Eccentricity: 0.0004581
inclination: 51.6459°
perigee height: 413 km
apogee height: 419 km
right ascension of ascending node: 130.6130°
argument of perigee: 48.6722°
revolutions per day: 15.50171053
mean anomaly at epoch: 15.1002°
orbit number at epoch: 90162

The dashed part of the orbit path shows where the satellite is in the earth's shadow,  

DLR